EW2693 Weather Reports


Display with metric or nautical units.
time (UTC)temp
F
wind
direction
speed
MPH
gust
MPH
rain 1hr
in
rain 24hr
in
rain mn
in
humidity
%
barometer
mb
20260507114000 68 279 3.0 9.0 0.00 0.00 0.00 56 1013.8
20260507112958 68 30 4.0 10.0 0.00 0.00 0.00 57 1013.8
20260507112000 69 40 3.0 9.0 0.00 0.00 0.00 58 1013.9
20260507110958 69 36 2.0 6.0 0.00 0.00 0.00 55 1013.9
20260507110004 69 15 2.0 9.0 0.00 0.00 0.00 57 1014.0
20260507104958 69 236 2.0 6.0 0.00 0.00 0.00 60 1014.1
20260507102958 70 71 2.0 5.0 0.00 0.00 0.00 55 1014.0
20260507100958 70 36 3.0 6.0 0.00 0.00 0.00 54 1014.0
20260507094000 70 309 1.0 4.0 0.00 0.00 0.00 56 1014.0
20260507092958 69 68 1.0 3.0 0.00 0.00 0.00 58 1014.0
20260507092002 69 80 1.0 4.0 0.00 0.00 0.00 57 1014.0
20260507090958 70 190 1.0 3.0 0.00 0.00 0.00 58 1013.9
20260507090004 68 82 1.0 3.0 0.00 0.00 0.00 60 1014.0
20260507084958 67 44 1.0 4.0 0.00 0.00 0.00 61 1014.0
20260507084000 67 52 1.0 5.0 0.00 0.00 0.00 65 1014.0
20260507082958 67 86 1.0 4.0 0.00 0.00 0.00 67 1013.9
20260507074958 67 177 1.0 3.0 0.00 0.00 0.00 60 1013.3
20260507074000 66 355 1.0 3.0 0.00 0.00 0.00 63 1013.4
20260507072958 66 300 0.0 3.0 0.00 0.00 0.00 65 1013.4
20260507072000 65 71 0.0 2.0 0.00 0.00 0.00 67 1013.3
20260507070958 65 71 1.0 3.0 0.00 0.00 0.00 69 1013.4
20260507070007 64 144 0.0 2.0 0.00 0.00 0.00 71 1013.6
20260507064958 63 144 0.0 1.0 0.00 0.00 0.00 73 1013.5
20260507064001 63 144 0.0 1.0 0.00 0.00 0.00 75 1013.5
20260507062958 62 144 1.0 3.0 0.00 0.00 0.00 78 1013.5
20260507062000 62 144 1.0 3.0 0.00 0.00 0.00 81 1013.5
20260507060958 61 144 0.0 1.0 0.00 0.00 0.00 82 1013.4
20260507054957 60 144 1.0 4.0 0.00 0.01 0.00 84 1013.3
20260507054000 60 144 0.0 1.0 0.00 0.01 0.00 85 1013.3
20260507052957 60 144 0.0 2.0 0.00 0.01 0.00 86 1013.0
20260507051959 60 144 0.0 1.0 0.00 0.01 0.00 86 1013.1
20260507050957 60 144 0.0 0.0 0.00 0.01 0.00 86 1013.0
20260507050002 60 144 0.0 0.0 0.00 0.01 0.00 86 1013.0
20260507042957 59 144 1.0 3.0 0.00 0.05 0.00 86 1012.5
20260507040957 59 144 1.0 3.0 0.00 0.05 0.00 86 1012.4
20260507034957 59 144 1.0 2.0 0.00 0.05 0.00 86 1012.2
20260507033959 59 144 0.0 2.0 0.00 0.05 0.00 86 1012.2
20260507032957 59 144 1.0 3.0 0.00 0.05 0.00 85 1012.2
20260507031959 60 144 1.0 2.0 0.00 0.05 0.00 84 1012.2
20260507030957 60 144 0.0 3.0 0.00 0.05 0.00 82 1012.2
20260507030002 60 144 0.0 0.0 0.00 0.05 0.00 81 1012.2
20260507024957 61 144 0.0 0.0 0.00 0.05 0.00 80 1012.2
20260507023959 61 144 0.0 0.0 0.00 0.05 0.00 79 1012.1
20260507022957 61 144 0.0 0.0 0.00 0.05 0.00 79 1012.0
20260507021959 61 144 0.0 0.0 0.00 0.05 0.00 80 1012.0
20260507020957 61 144 0.0 0.0 0.00 0.05 0.00 80 1012.1
20260507020003 61 144 0.0 0.0 0.00 0.05 0.00 81 1012.1
20260507014957 61 144 0.0 0.0 0.00 0.05 0.00 81 1012.1
20260507013959 61 144 0.0 0.0 0.00 0.05 0.00 81 1012.0
20260507012957 62 144 0.0 2.0 0.00 0.05 0.00 80 1012.1
20260507011959 62 144 0.0 0.0 0.00 0.05 0.00 79 1012.1
20260507010002 62 144 0.0 2.0 0.00 0.05 0.00 78 1012.1
20260507004957 62 144 0.0 0.0 0.00 0.05 0.00 78 1012.1
20260507003959 63 144 0.0 2.0 0.00 0.05 0.00 77 1012.1
20260507002957 63 144 0.0 2.0 0.00 0.05 0.00 76 1012.1
20260507001959 63 144 0.0 1.0 0.00 0.05 0.00 75 1012.2
20260507000000 64 144 0.0 1.0 0.00 0.05 0.00 73 1012.1
20260506234959 64 144 0.0 1.0 0.00 0.05 0.00 72 1012.2
20260506233957 64 144 0.0 3.0 0.00 0.05 0.00 72 1011.9
20260506233000 64 144 0.0 2.0 0.00 0.05 0.00 74 1012.1
20260506230959 64 144 3.0 7.0 0.00 0.05 0.00 74 1011.8
20260506230002 64 140 4.0 10.0 0.00 0.05 0.00 74 1012.0
20260506224000 64 133 3.0 7.0 0.00 0.06 0.00 74 1011.9
20260506223003 64 138 2.0 5.0 0.00 0.06 0.00 74 1012.0
20260506222000 64 130 3.0 7.0 0.00 0.06 0.00 74 1012.1
20260506221002 64 132 2.0 4.0 0.00 0.06 0.00 74 1012.1
20260506220006 64 131 1.0 4.0 0.00 0.06 0.00 75 1012.1
20260506215003 64 92 0.0 2.0 0.00 0.09 0.06 75 1012.2
20260506214001 64 92 0.0 2.0 0.00 0.09 0.06 75 1012.1
20260506213003 64 92 0.0 2.0 0.00 0.09 0.06 75 1012.1
20260506212000 64 92 0.0 2.0 0.00 0.09 0.06 76 1012.1
20260506210003 64 92 0.0 1.0 0.00 0.09 0.06 77 1012.2
20260506205002 64 92 0.0 2.0 0.00 0.18 0.06 77 1012.3
20260506203959 64 92 0.0 2.0 0.00 0.18 0.06 77 1012.2
20260506203002 64 92 0.0 3.0 0.00 0.18 0.06 76 1012.1
20260506201002 64 90 0.0 0.0 0.00 0.18 0.06 76 1012.1
20260506200002 64 88 0.0 1.0 0.00 0.18 0.06 76 1012.1
20260506193959 65 88 0.0 2.0 0.00 0.22 0.06 75 1011.8
20260506191958 65 89 0.0 2.0 0.00 0.22 0.06 74 1011.8
20260506191001 65 90 1.0 3.0 0.00 0.22 0.06 73 1011.5
20260506190002 66 91 0.0 3.0 0.00 0.22 0.06 72 1011.4
20260506185001 66 53 0.0 2.0 0.00 0.41 0.06 70 1011.3
20260506183959 67 55 1.0 4.0 0.00 0.41 0.06 69 1011.2
20260506183001 68 134 1.0 4.0 0.00 0.41 0.06 66 1010.8
20260506181959 68 135 2.0 8.0 0.00 0.41 0.06 66 1010.5
20260506181001 69 147 2.0 7.0 0.00 0.41 0.06 65 1010.4
20260506175002 69 144 3.0 11.0 0.00 0.50 0.06 64 1010.3
20260506173959 69 121 2.0 7.0 0.00 0.50 0.06 63 1010.2
20260506173001 70 130 3.0 9.0 0.00 0.50 0.06 62 1010.1
20260506171959 70 126 3.0 10.0 0.00 0.50 0.06 62 1010.0
20260506171001 70 161 4.0 10.0 0.00 0.50 0.06 61 1009.9
20260506170002 70 117 4.0 11.0 0.00 0.50 0.06 61 1009.9
20260506163959 71 139 4.0 10.0 0.00 0.50 0.06 59 1009.9
20260506163001 71 186 4.0 13.0 0.00 0.50 0.06 59 1010.0
20260506161958 72 145 4.0 10.0 0.00 0.50 0.06 58 1009.9
20260506161001 72 141 4.0 11.0 0.00 0.50 0.06 58 1009.9
20260506160002 72 148 5.0 12.0 0.00 0.50 0.06 58 1010.0
20260506155002 72 134 5.0 11.0 0.00 0.50 0.06 57 1010.0
20260506153001 73 144 5.0 12.0 0.00 0.50 0.06 57 1009.9
20260506151959 73 140 4.0 10.0 0.00 0.50 0.06 59 1009.8
20260506151001 72 142 5.0 10.0 0.00 0.50 0.06 58 1009.9
20260506150002 72 119 4.0 13.0 0.00 0.50 0.06 58 1009.9
20260506143959 72 125 3.0 11.0 0.00 0.50 0.06 59 1009.8
20260506143001 72 141 5.0 12.0 0.00 0.50 0.06 57 1009.8
20260506141001 72 147 5.0 15.0 0.00 0.50 0.06 57 1009.9
20260506135001 73 127 5.0 9.0 0.00 0.50 0.06 58 1010.1
20260506133003 72 146 4.0 10.0 0.00 0.50 0.06 58 1010.4
20260506131958 72 159 4.0 10.0 0.00 0.50 0.06 55 1010.6
20260506131001 73 169 4.0 11.0 0.00 0.50 0.06 55 1010.7
20260506130002 72 148 4.0 13.0 0.00 0.50 0.06 54 1010.7
20260506123958 71 155 4.0 15.0 0.00 0.50 0.06 55 1011.0
20260506123001 72 133 5.0 14.0 0.00 0.50 0.06 57 1010.8
20260506121001 72 135 3.0 9.0 0.00 0.50 0.06 60 1011.0
20260506114957 72 175 4.0 9.0 0.00 0.50 0.06 57 1010.9